Regional Weather Roundup
Issued by NWS

Home | Current Version | Previous Version | Text Only | Print | Product List | Glossary On
Versions: 1 2 3 4 5 6 7 8 9 10 11 12 13 14 15 16 17 18 19 20 21 22 23 24 25 26 27 28 29 30 31 32 33 34 35 36 37 38 39 40 41 42 43 44 45 46 47 48 49 50
000
ASCA42 TJSJ 160311
RWRPR
PUERTO RICO/U.S. VIRGIN ISLANDS HOURLY WEATHER ROUNDUP
NATIONAL WEATHER SERVICE SAN JUAN PR
1100 PM AST MON SEP 15 2014

PRZ001-004-160400-
PUERTO RICO

CITY           SKY/WX    TMP DP  RH WIND       PRES   REMARKS
SAN JUAN LMM   LGT RAIN  81  75  83 CALM      30.04S
PONCE          PTCLDY    75  75 100 CALM      29.99
CEIBA          PTCLDY    79  75  89 NW6       30.06S
$$

PRZ006-007-160400-
U.S. VIRGIN ISLANDS

CITY           SKY/WX    TMP DP  RH WIND       PRES   REMARKS
CHARLOTTE AMA  CLEAR     79  73  83 CALM      30.03
CHRISTIANSTED  CLEAR     77  73  88 N3        30.03F
$$

HOURLY WEATHER ROUNDUP FOR THE NEWS MEDIA

CITY           SKY/WX    TMP DP  RH WIND       PRES   REMARKS
MIAMI          PTCLDY    82  74  76 E7        30.14R
ORLANDO        MOCLDY    81  73  76 E3        30.15S
NEW YORK       MOCLDY    64  53  67 SW7       30.11S
NEWARK         MOCLDY    62  52  69 S8        30.10R
CHICAGO        PTCLDY    54  48  80 NW8       30.16R
HARTFORD       PTCLDY    50  48  93 CALM      30.11F
BOSTON         PTCLDY    58  48  69 S8        30.11F
DALLAS         CLOUDY    81  69  67 SE8       30.11R
PHILADELPHIA   MOCLDY    61  52  72 CALM      30.09S



USA.gov is the U.S. government's official web portal to all federal, state and local government web resources and services.